Back to catalog

OPS 4682 DEB

AlivePO
NORAD 15340·DEBRIS·🇺🇸 United States

Launched Apr 3, 1965 from Vandenberg Space Force Base

Loading…

Next Passes (next 24 hours)

TLE

FreshSource: Space-Track

Epoch: Sep 14, 2026, 13:58 UTC

1 15340U 65027R   26257.58222605 -.00000519  00000-0 -17653-2 0  9996
2 15340  90.2445   7.6923 0038195 149.0956 273.5742 12.99192138995138

Track OPS 4682 DEB in real time with AllMySat

Download on the App Store